When you browse on this site, cookies collect data to enhance your experience and personalize the content and advertising you see.
Visit our Privacy Policy to learn more. By continuing to use the site, you agree to this use of cookies and data.
  • In Lithuania
  • List of Countries
  • For 7 days
  • Water Temperature
  • Satellite Maps
  • Weather Map
  • Weather Widgets
  • user-avatar
    Login

    Hourly Weather Sarai

    Today, 10 December, Monday

    Time Temperature Precipitation Wind Pressure Humidity
    00:00 0°C° 0 mm 5 mps 760 mmHg 89%
    01:00 -1°C° 0 mm 5 mps 759 mmHg 89%
    02:00 -1°C° 0 mm 5 mps 759 mmHg 90%
    03:00 -1°C° 0 mm 5 mps 759 mmHg 91%
    04:00 -1°C° 0 mm 5 mps 759 mmHg 91%
    05:00 -1°C° 0 mm 5 mps 759 mmHg 91%
    06:00 -2°C° 0 mm 5 mps 758 mmHg 92%
    07:00 -2°C° 0 mm 5 mps 758 mmHg 92%
    08:00 -1°C° 0 mm 5 mps 758 mmHg 92%
    09:00 -2°C° 0 mm 6 mps 758 mmHg 91%
    10:00 -1°C° 0 mm 6 mps 758 mmHg 90%
    11:00 +1°C° 0 mm 6 mps 757 mmHg 89%
    12:00 +1°C° 0 mm 6 mps 757 mmHg 88%
    13:00 +2°C° 0 mm 6 mps 757 mmHg 88%
    14:00 +2°C° 0 mm 5 mps 757 mmHg 89%
    15:00 +2°C° 0 mm 5 mps 757 mmHg 89%
    16:00 +2°C° 0 mm 5 mps 757 mmHg 90%
    17:00 +1°C° 0 mm 5 mps 757 mmHg 91%
    18:00 +1°C° 0 mm 5 mps 757 mmHg 92%
    19:00 +1°C° 0.4 mm 5 mps 757 mmHg 92%
    20:00 +1°C° 0.4 mm 6 mps 757 mmHg 92%
    21:00 +2°C° 0.4 mm 6 mps 757 mmHg 91%
    22:00 +2°C° 0.2 mm 6 mps 757 mmHg 92%
    23:00 +2°C° 0.2 mm 6 mps 757 mmHg 92%

    Tomorrow, 11 December, Tuesday

    Time Temperature Precipitation Wind Pressure Humidity
    00:00 +2°C° 0.2 mm 5 mps 756 mmHg 93%
    01:00 +2°C° 0.4 mm 5 mps 757 mmHg 93%
    02:00 +3°C° 0.4 mm 4 mps 757 mmHg 94%
    03:00 +3°C° 0.4 mm 4 mps 757 mmHg 94%
    04:00 +1°C° 0 mm 4 mps 757 mmHg 94%
    05:00 +1°C° 0 mm 4 mps 756 mmHg 95%
    06:00 +1°C° 0 mm 4 mps 756 mmHg 95%
    07:00 +1°C° 0 mm 4 mps 756 mmHg 95%
    08:00 +1°C° 0 mm 4 mps 756 mmHg 95%
    09:00 +1°C° 0 mm 5 mps 756 mmHg 96%
    10:00 +1°C° 0 mm 5 mps 756 mmHg 94%
    11:00 +2°C° 0 mm 5 mps 755 mmHg 92%
    12:00 +3°C° 0 mm 6 mps 755 mmHg 90%
    13:00 +3°C° 0 mm 6 mps 754 mmHg 90%
    14:00 +3°C° 0 mm 6 mps 754 mmHg 90%
    15:00 +3°C° 0 mm 7 mps 753 mmHg 90%
    16:00 +3°C° 0 mm 6 mps 753 mmHg 90%
    17:00 +4°C° 0 mm 6 mps 753 mmHg 90%
    18:00 +5°C° 0 mm 5 mps 754 mmHg 90%
    19:00 +5°C° 0.2 mm 5 mps 754 mmHg 91%
    20:00 +5°C° 0.2 mm 5 mps 754 mmHg 92%
    21:00 +5°C° 0.2 mm 5 mps 754 mmHg 93%
    22:00 +5°C° 0.8 mm 5 mps 754 mmHg 94%
    23:00 +5°C° 0.8 mm 5 mps 754 mmHg 94%

    Day after tomorrow, 12 December, Wednesday

    Time Temperature Precipitation Wind Pressure Humidity
    00:00 +5°C° 0.8 mm 5 mps 754 mmHg 95%
    01:00 +5°C° 0.1 mm 5 mps 754 mmHg 94%
    02:00 +5°C° 0.1 mm 4 mps 754 mmHg 93%
    03:00 +5°C° 0.1 mm 4 mps 754 mmHg 93%
    04:00 +5°C° 0 mm 4 mps 755 mmHg 92%
    05:00 +5°C° 0 mm 4 mps 755 mmHg 90%
    06:00 +5°C° 0 mm 4 mps 755 mmHg 89%
    07:00 +5°C° 0 mm 5 mps 755 mmHg 88%
    08:00 +5°C° 0 mm 5 mps 756 mmHg 87%
    09:00 +5°C° 0 mm 5 mps 756 mmHg 85%
    10:00 +6°C° 0 mm 5 mps 756 mmHg 80%
    11:00 +7°C° 0 mm 6 mps 756 mmHg 75%
    12:00 +8°C° 0 mm 6 mps 756 mmHg 70%
    13:00 +8°C° 0 mm 5 mps 756 mmHg 70%
    14:00 +7°C° 0 mm 5 mps 756 mmHg 70%
    15:00 +7°C° 0 mm 4 mps 757 mmHg 70%
    16:00 +7°C° 0 mm 3 mps 757 mmHg 72%
    17:00 +6°C° 0 mm 2 mps 757 mmHg 74%
    18:00 +5°C° 0 mm 2 mps 758 mmHg 77%
    19:00 +6°C° 0 mm 1 mps 758 mmHg 77%
    20:00 +6°C° 0 mm 1 mps 758 mmHg 78%
    21:00 +5°C° 0 mm 1 mps 758 mmHg 79%
    22:00 +5°C° 0 mm 1 mps 758 mmHg 79%
    23:00 +5°C° 0 mm 1 mps 759 mmHg 79%

    13 December, Thursday

    Time Temperature Precipitation Wind Pressure Humidity
    00:00 +5°C° 0 mm 1 mps 759 mmHg 79%
    01:00 +5°C° 0 mm 1 mps 759 mmHg 79%
    02:00 +5°C° 0 mm 1 mps 759 mmHg 79%
    03:00 +5°C° 0 mm 1 mps 760 mmHg 79%
    04:00 +5°C° 0 mm 1 mps 760 mmHg 80%
    05:00 +4°C° 0 mm 1 mps 760 mmHg 81%
    06:00 +4°C° 0 mm 1 mps 761 mmHg 81%
    07:00 +4°C° 0 mm 1 mps 761 mmHg 81%
    08:00 +3°C° 0 mm 2 mps 761 mmHg 82%
    09:00 +3°C° 0 mm 2 mps 762 mmHg 82%
    10:00 +4°C° 0 mm 2 mps 762 mmHg 77%
    11:00 +5°C° 0 mm 2 mps 762 mmHg 71%
    12:00 +5°C° 0 mm 3 mps 762 mmHg 66%
    13:00 +6°C° 0 mm 2 mps 762 mmHg 64%
    14:00 +6°C° 0 mm 2 mps 762 mmHg 63%
    15:00 +6°C° 0 mm 2 mps 762 mmHg 61%
    16:00 +5°C° 0 mm 2 mps 762 mmHg 65%
    17:00 +5°C° 0 mm 2 mps 763 mmHg 70%
    18:00 +4°C° 0 mm 2 mps 763 mmHg 74%
    19:00 +3°C° 0 mm 2 mps 763 mmHg 76%
    20:00 +3°C° 0 mm 2 mps 763 mmHg 78%
    21:00 +3°C° 0 mm 2 mps 763 mmHg 80%
    22:00 +3°C° 0 mm 2 mps 763 mmHg 82%
    23:00 +3°C° 0 mm 2 mps 763 mmHg 84%

    14 December, Friday

    Time Temperature Precipitation Wind Pressure Humidity
    00:00 +1°C° 0 mm 3 mps 763 mmHg 85%
    01:00 +1°C° 0 mm 3 mps 763 mmHg 86%
    02:00 +1°C° 0 mm 3 mps 763 mmHg 88%
    03:00 +1°C° 0 mm 3 mps 763 mmHg 89%
    04:00 +1°C° 0 mm 3 mps 763 mmHg 89%
    05:00 +1°C° 0 mm 3 mps 763 mmHg 90%
    06:00 +1°C° 0 mm 2 mps 763 mmHg 90%
    07:00 +2°C° 0 mm 2 mps 763 mmHg 90%
    08:00 +2°C° 0 mm 2 mps 764 mmHg 90%
    09:00 +2°C° 0 mm 2 mps 764 mmHg 89%
    10:00 +2°C° 0 mm 3 mps 764 mmHg 82%
    11:00 +4°C° 0 mm 4 mps 764 mmHg 75%
    12:00 +5°C° 0 mm 4 mps 764 mmHg 68%
    13:00 +5°C° 0.1 mm 4 mps 763 mmHg 69%
    14:00 +5°C° 0.1 mm 4 mps 763 mmHg 69%
    15:00 +5°C° 0.1 mm 3 mps 763 mmHg 69%
    16:00 +4°C° 0.1 mm 3 mps 763 mmHg 72%
    17:00 +4°C° 0.1 mm 3 mps 763 mmHg 76%
    18:00 +4°C° 0.1 mm 2 mps 763 mmHg 79%
    19:00 +3°C° 0.3 mm 3 mps 763 mmHg 81%
    20:00 +3°C° 0.3 mm 3 mps 763 mmHg 82%
    21:00 +3°C° 0.3 mm 3 mps 763 mmHg 83%
    22:00 +3°C° 0.2 mm 3 mps 763 mmHg 84%
    23:00 +3°C° 0.2 mm 2 mps 763 mmHg 85%

    15 December, Saturday

    Time Temperature Precipitation Wind Pressure Humidity
    00:00 +3°C° 0.2 mm 2 mps 762 mmHg 85%
    01:00 +3°C° 0.2 mm 2 mps 762 mmHg 84%
    02:00 +3°C° 0.2 mm 2 mps 762 mmHg 82%
    03:00 +3°C° 0.2 mm 2 mps 762 mmHg 81%
    04:00 +3°C° 0.1 mm 2 mps 762 mmHg 80%
    05:00 +2°C° 0.1 mm 3 mps 761 mmHg 79%
    06:00 +2°C° 0.1 mm 3 mps 761 mmHg 78%
    07:00 +2°C° 0 mm 3 mps 761 mmHg 78%
    08:00 +1°C° 0 mm 4 mps 761 mmHg 79%
    09:00 +1°C° 0 mm 4 mps 761 mmHg 79%
    10:00 +3°C° 0 mm 4 mps 761 mmHg 76%
    11:00 +2°C° 0 mm 5 mps 761 mmHg 72%
    12:00 +3°C° 0 mm 5 mps 760 mmHg 69%
    13:00 +3°C° 0 mm 5 mps 760 mmHg 70%
    14:00 +3°C° 0 mm 5 mps 760 mmHg 71%
    15:00 +3°C° 0 mm 5 mps 760 mmHg 72%
    16:00 +3°C° 0.1 mm 5 mps 760 mmHg 75%
    17:00 +3°C° 0.1 mm 6 mps 759 mmHg 78%
    18:00 +3°C° 0.1 mm 6 mps 759 mmHg 81%
    19:00 +3°C° 0.4 mm 7 mps 759 mmHg 83%
    20:00 +3°C° 0.4 mm 7 mps 759 mmHg 84%
    21:00 +2°C° 0.4 mm 8 mps 759 mmHg 85%
    22:00 +2°C° 0.5 mm 8 mps 759 mmHg 84%
    23:00 +2°C° 0.5 mm 8 mps 758 mmHg 84%
    Show more